Gillette, WY

2:11 AM MDT on October 17, 2017 (GMT -0600)
Gillette-Campbell County

Weather History for KGCC - July, 2013

Change the Weather History Date:

Saturday, July 6, 2013

  Actual Average Record
Temperature  
Mean Temperature 72 °F 70 °F  
Max Temperature 84 °F 85 °F 107 °F (1981)
Min Temperature 60 °F 54 °F 40 °F (1934)
Degree Days  
Heating Degree Days 0 1  
Month to date heating degree days 0 7  
Since 1 June heating degree days 117 149  
Since 1 July heating degree days 0 7  
Cooling Degree Days 7 6  
Month to date cooling degree days 44 31  
Year to date cooling degree days 98 99  
Since 1 June cooling degree days 90 91  
Growing Degree Days 22 (Base 50)    
Moisture  
Dew Point 57 °F    
Average Humidity 65    
Maximum Humidity 93    
Minimum Humidity 37    
Precipitation  
Precipitation 0.16 in 0.05 in 0.39 in (1975)
Month to date precipitation 1.50 0.30  
Year to date precipitation 11.05 8.17  
Sea Level Pressure  
Sea Level Pressure 29.83 in    
Wind  
Wind Speed 7 mph (NNE)    
Max Wind Speed 31 mph    
Max Gust Speed 38 mph    
Visibility 10 miles    
Events Rain , Thunderstorm    
T = Trace of Precipitation, MM = Missing Value Source: NWS Daily Summary

Daily Weather History Graph

Daily Weather History Graph

Search for Another Location

Airport or City:

Trip Planner

Search our weather history database for the weather conditions in past years. The results will help you decide how hot, cold, wet, or windy it might be!

Date:

Astronomy

Jul. 06, 2013 Rise Set
Actual Time 5:25 AM MDT 8:48 PM MDT
Civil Twilight 4:49 AM MDT 9:24 PM MDT
Nautical Twilight 4:01 AM MDT 10:11 PM MDT
Astronomical Twilight 3:02 AM MDT 11:10 PM MDT
Moon 4:15 AM MDT (7/6) 7:29 PM MDT (7/6)
Length of Visible Light 16h 35m
Length of Day
15h 23m
Waning Crescent, 2% of the Moon is Illuminated
Jul 6
Waning Crescent
Jul 8
New
Jul 15
First Quarter
Jul 22
Full
Jul 29
Last Quarter

Hourly Weather History & Observations

Time (MDT) Temp. Heat Index Dew Point Humidity Pressure Visibility Wind Dir Wind Speed Gust Speed Precip Events Conditions
12:53 AM 63.0 °F - 60.1 °F 90% 29.73 in 10.0 mi SSW 3.5 mph - N/A   Clear
1:53 AM 62.1 °F - 59.0 °F 90% 29.70 in 10.0 mi West 3.5 mph - N/A   Clear
2:53 AM 62.1 °F - 57.9 °F 86% 29.71 in 10.0 mi West 6.9 mph - N/A   Clear
3:53 AM 62.1 °F - 57.9 °F 86% 29.70 in 10.0 mi Calm Calm - N/A   Clear
4:53 AM 61.0 °F - 57.9 °F 90% 29.71 in 10.0 mi WSW 4.6 mph - N/A   Clear
5:53 AM 62.1 °F - 57.9 °F 86% 29.74 in 10.0 mi Calm Calm - N/A   Overcast
6:53 AM 64.0 °F - 60.1 °F 87% 29.76 in 10.0 mi Calm Calm - N/A   Clear
7:53 AM 69.1 °F - 59.0 °F 70% 29.77 in 10.0 mi North 4.6 mph - N/A   Clear
8:53 AM 72.0 °F - 59.0 °F 64% 29.79 in 10.0 mi North 9.2 mph - N/A   Clear
9:53 AM 75.9 °F - 60.1 °F 58% 29.80 in 10.0 mi North 6.9 mph - N/A   Clear
10:53 AM 77.0 °F - 59.0 °F 54% 29.81 in 10.0 mi NW 9.2 mph 17.3 mph N/A   Clear
11:53 AM 78.1 °F - 55.9 °F 46% 29.81 in 10.0 mi North 9.2 mph - N/A   Partly Cloudy
12:53 PM 81.0 °F 81.0 °F 57.0 °F 44% 29.81 in 10.0 mi NNE 8.1 mph - N/A   Partly Cloudy
1:53 PM 82.0 °F 81.4 °F 55.0 °F 39% 29.81 in 10.0 mi NNE 9.2 mph - N/A   Scattered Clouds
2:53 PM 82.0 °F 81.4 °F 55.0 °F 39% 29.82 in 10.0 mi North 6.9 mph - N/A   Partly Cloudy
3:53 PM 82.0 °F 81.7 °F 57.0 °F 42% 29.81 in 10.0 mi East 9.2 mph - N/A   Mostly Cloudy
4:25 PM 82.4 °F 81.7 °F 55.4 °F 39% 29.95 in 10.0 mi NNE 11.5 mph - N/A Thunderstorm Mostly Cloudy
4:49 PM 82.4 °F 81.4 °F 53.6 °F 37% 29.95 in 10.0 mi North 6.9 mph - N/A   Clear
4:53 PM 82.9 °F 81.9 °F 54.0 °F 37% 29.80 in 10.0 mi NE 4.6 mph - N/A   Clear
5:53 PM 79.0 °F - 57.0 °F 47% 29.81 in 10.0 mi NNE 15.0 mph - N/A   Clear
6:53 PM 77.0 °F - 57.0 °F 50% 29.83 in 10.0 mi NE 10.4 mph - N/A   Clear
7:53 PM 72.0 °F - 57.9 °F 61% 29.82 in 10.0 mi ENE 11.5 mph - N/A   Clear
8:53 PM 71.1 °F - 55.0 °F 57% 29.82 in 10.0 mi ENE 3.5 mph - N/A   Clear
9:36 PM 69.8 °F - 57.2 °F 64% 30.01 in 10.0 mi Calm Calm - N/A Thunderstorm Mostly Cloudy
9:53 PM 71.1 °F - 57.0 °F 61% 29.89 in 6.0 mi North 9.2 mph - 0.00 in Rain , Thunderstorm Light Thunderstorms and Rain
10:17 PM 64.4 °F - 55.4 °F 73% 30.04 in 4.0 mi NW 12.7 mph 38.0 mph 0.11 in Rain , Thunderstorm Thunderstorms and Rain
10:53 PM 63.0 °F - 57.0 °F 81% 29.94 in 10.0 mi SSE 13.8 mph - 0.16 in Thunderstorm Thunderstorm
11:18 PM 62.6 °F - 55.4 °F 77% 30.05 in 10.0 mi ESE 9.2 mph - N/A   Clear
11:53 PM 62.1 °F - 57.9 °F 86% 29.91 in 10.0 mi ESE 4.6 mph - N/A   Clear